Location: Unspecified
(35.6961°N, 0.0000°E)
Time: 23:20:06
(UTC+00:00)

Vanguard 2 Rocket - Pass Details

Date: 31 May 2019
Orbit: 554 x 3326 km, 32.9° (Epoch: 15 June)

Event Time Altitude Azimuth Distance (km) Brightness Sun altitude
Rises 10:43:20 0° 281° (W) 6,069 10.9 68.7°
Reaches altitude 10° 10:49:19 10° 267° (W) 4,484 10.4 69.7°
Maximum altitude 10:56:35 19° 228° (SW) 3,020 9.8 70.8°
Drops below altitude 10° 11:01:50 10° 186° (S) 3,076 9.9 71.6°
Sets 11:04:58 0° 167° (SSE) 3,671 10.2 72.1°
